Location: Ar Ranvel
(48.3000°N, 4.8833°W)
Time: 03:28:38
(UTC+00:00)

Cosmos 2322 Rocket - Pass Details

Date: 23 October 2021
Orbit: 832 x 851 km, 71.0° (Epoch: 01 December)

Event Time Altitude Azimuth Distance (km) Brightness Sun altitude
Rises 21:49:10 0° 280° (W) 3,381 5.9 -43.9°
Reaches altitude 10° 21:53:38 10° 313° (NW) 2,453 5.2 -44.5°
Maximum altitude 21:55:26 11° 332° (NNW) 2,352 5.0 -44.7°
Enters shadow 21:56:15 11° 341° (NNW) 2,375 5.0 -44.8°
